Location: Elbisbach
(51.1046°N, 12.6417°E)
Time: 04:55:00
(UTC+00:00)

Daily predictions for brighter satellites

Satellite Brightness Start Highest point End
(mag) Time Altitude Azimuth Time Altitude Azimuth Time Altitude Azimuth
SL-16 R/B 4.4 01:46:11 17° N 01:46:11 17° N 01:47:47 10° NNE
CENTAUR R/B 4.3 01:48:26 21° ESE 01:49:16 22° ESE 01:54:13 10° ENE
ADEOS II 4.3 01:47:06 10° NNE 01:48:30 19° NNE 01:48:30 19° NNE
USA 238 DEB 4.2 02:19:35 48° SE 02:20:05 49° ESE 02:26:40 10° NE
USA 238 4.2 02:19:39 47° SE 02:20:11 48° ESE 02:26:45 10° NE
NOSS 3-2 (A) 3.9 02:24:30 53° ESE 02:24:30 53° ESE 02:30:39 10° NE
CZ-2C R/B 4.3 02:21:27 10° NE 02:25:45 28° E 02:27:56 20° SE
Lacrosse 4 Rocket 3.9 02:31:40 17° ESE 02:31:40 17° ESE 02:34:20 10° ENE
IDEFIX/ARIANE 42P 3.5 02:32:27 10° NNE 02:35:46 40° NNE 02:35:46 40° NNE
USA 234 3.2 02:34:25 10° ENE 02:40:55 69° NNW 02:41:14 68° NW
Cosmos 494 Rocket 4.4 02:42:46 59° E 02:42:46 59° E 02:47:48 10° NNE
Cosmos 2279 Rocket 4.0 02:42:48 10° N 02:49:03 75° ENE 02:55:15 10° SSE
NOSS 3-3 (A) 4.4 02:49:52 64° SW 02:49:56 64° SW 02:58:08 10° SSE
NOSS 3-3 (C) 4.4 02:50:05 64° SW 02:50:05 64° SW 02:58:08 10° SSE
Cosmos 1656 3.7 02:49:55 67° N 02:50:36 77° ENE 02:56:18 10° SE
ADEOS Rocket 2.8 02:49:39 10° SSE 02:55:07 77° ENE 03:00:46 10° NNW
Cosmos 2344 3.5 02:56:53 49° SSW 02:59:13 81° SE 03:07:28 10° NE
Lacrosse 5 rocket 3.8 03:00:14 12° SE 03:00:59 13° SE 03:02:42 10° E
Meteor 1-21 4.4 03:04:12 54° NNW 03:04:12 54° NNW 03:08:50 10° N
COSMOS 2406 4.5 02:59:31 12° S 03:04:11 38° ESE 03:09:23 10° NE
Cosmos 1697 Rocket 3.1 03:03:55 19° NNW 03:08:00 62° NE 03:13:37 10° SE
Cosmos 1536 Rocket 3.9 03:11:56 48° SSE 03:12:58 65° E 03:17:26 10° NNE
NOSS 3-2 (C) 3.5 03:21:46 39° SSW 03:24:04 76° SE 03:30:44 10° NE
MSX 3.9 03:20:37 10° N 03:26:12 55° WNW 03:26:51 52° W
CZ-4B R/B 2.0 03:25:40 10° SSE 03:29:04 57° ENE 03:30:17 35° N
SL-16 R/B 4.4 03:28:04 11° NNW 03:29:07 12° NNW 03:31:01 10° N
Cosmos 44 Rocket 3.4 03:29:14 57° SW 03:29:14 57° SW 03:34:13 10° SSE
Cosmos 1980 Rocket 2.9 03:24:17 10° NNW 03:29:45 52° NE 03:35:13 10° SE
ADEOS II 4.0 03:27:57 10° NNW 03:29:26 15° NNW 03:29:26 15° NNW
PSLV R/B 3.4 03:31:03 10° NNE 03:35:20 79° WNW 03:36:14 55° SSW
ARIANE 5 R/B 3.8 03:33:28 10° N 03:36:09 23° NNW 03:36:09 23° NNW
CENTAUR R/B 2.5 03:35:39 32° SW 03:38:49 88° SE 03:46:10 10° NE
Cosmos 2360 4.2 03:34:51 11° NNW 03:40:28 82° ENE 03:46:10 10° SSE
Intercosmos 24 4.2 03:36:38 10° N 03:40:51 63° ENE 03:44:23 10° SSE
ERS-2 2.7 03:44:55 10° S 03:47:31 41° SSW 03:47:31 41° SSW
KORONAS-FOTON 3.7 03:51:42 47° SW 03:52:34 63° WNW 03:56:28 10° N
SAR-Lupe-4 3.6 03:51:17 10° SSE 03:54:51 81° ENE 03:58:27 10° NNW
Cosmos 967 Rocket 4.4 03:49:43 16° NW 03:54:55 80° SW 04:01:10 10° SSE
Cosmos 2278 3.8 03:50:26 10° NNW 03:56:07 78° ENE 04:01:47 10° SE
ALOS 2.4 03:52:10 10° NNE 03:56:53 74° ESE 04:01:32 10° S
SL-14 R/B 3.9 03:54:19 10° S 03:58:14 59° E 04:02:13 10° NNE
Cosmos 2322 Rocket 4.0 03:55:01 10° NNW 03:59:58 29° NE 04:04:52 10° ESE
Aureole 3 4.4 03:56:29 10° N 04:00:13 50° ENE 04:04:53 10° SSE
CZ-2C R/B 2.6 03:59:21 10° N 04:04:12 47° WNW 04:07:18 20° SW
Nadezhda 4 Rocket 3.9 03:58:06 10° SSW 04:04:13 81° W 04:10:24 10° N
Cosmos 1300 2.7 04:01:29 10° N 04:05:20 83° E 04:09:09 10° SSE
Cosmos 1726 Rocket 3.6 04:01:23 10° N 04:05:53 82° E 04:10:20 10° SSE
ADEOS 3.5 04:01:35 10° NNE 04:06:51 89° WNW 04:12:05 10° SSW
Abrixas rocket 2.6 04:06:51 38° SSW 04:06:54 38° SSW 04:09:35 10° ESE
PAYLOAD A 4.4 04:04:28 10° N 04:09:09 41° WNW 04:12:20 20° SW
ISS -2.0 04:07:09 16° SSW 04:09:11 28° SSE 04:12:07 10° E
PSLV R/B 4.2 04:05:11 10° SSE 04:09:22 71° ENE 04:13:36 10° N
GP-B 4.2 04:10:49 24° NW 04:10:49 24° NW 04:13:31 10° NNW
Lacrosse 4 Rocket 1.2 04:08:01 30° SW 04:09:52 64° NW 04:13:57 10° NNE
USA 238 DEB 3.9 04:07:03 25° WSW 04:11:01 55° NW 04:17:56 10° NE
USA 238 3.9 04:07:08 25° WSW 04:11:06 56° NW 04:18:02 10° NE
Cosmos 1833 Rocket 2.7 04:05:27 10° SSW 04:11:06 86° ESE 04:16:49 10° NNE
Cosmos 1689 Rocket 2.1 04:09:15 10° SSE 04:12:11 77° ENE 04:15:07 10° N
SAR-Lupe-1 3.9 04:08:56 10° S 04:12:29 69° WSW 04:16:05 10° NNW
Meteor 2-13 Rocket 4.5 04:07:22 10° S 04:13:32 86° E 04:19:42 10° NNE
USA 290 3.8 04:10:55 10° S 04:13:55 37° ESE 04:16:58 10° NE
Cosmos 1025 Rocket 4.0 04:14:23 27° WNW 04:14:24 27° WNW 04:18:10 10° N
NOSS 3-2 (A) 3.9 04:11:54 25° W 04:15:17 49° NNW 04:22:01 10° NE
Cosmos 1484 Rocket 2.6 04:11:42 10° N 04:15:35 70° WNW 04:19:23 10° SSW
Meteor 1-24 Rocket 4.0 04:10:51 10° S 04:16:27 76° E 04:22:19 10° NNE
IDEFIX/ARIANE 42P 4.1 04:13:15 10° NNW 04:16:34 18° NW 04:16:34 18° NW
Cosmos 1674 3.3 04:16:30 31° W 04:17:06 33° WNW 04:20:36 10° N
Cosmos 2228 3.0 04:14:38 10° NNW 04:18:56 57° W 04:23:13 10° S
Cosmos 2369 3.8 04:13:37 10° NW 04:19:07 53° WSW 04:24:35 10° S
Cosmos 1269 Rocket 4.3 04:15:37 17° SW 04:19:30 48° WNW 04:24:40 10° NNE
Meteor 2-10 Rocket 4.4 04:15:18 10° N 04:20:12 50° ENE 04:25:06 10° SSE
Cosmos 1606 Rocket 3.6 04:16:28 10° NNW 04:20:53 59° W 04:25:16 10° S
CZ-4B R/B 3.5 04:18:34 10° NNE 04:22:30 60° ESE 04:26:37 10° S
USA 234 3.7 04:17:14 10° ENE 04:23:34 54° N 04:28:35 17° WNW
ATLAS 3B R/B 3.0 04:18:30 10° SSW 04:24:59 66° SE 04:31:36 10° NE
Cosmos 1626 2.1 04:22:33 10° SSW 04:26:11 55° WNW 04:29:50 10° N
METEOR-M 4.1 04:21:34 10° NNE 04:26:57 79° WNW 04:32:17 10° SSW
Cosmos 2082 Rocket 2.5 04:24:04 10° SSW 04:29:38 72° ESE 04:35:16 10° NNE
COSMO-SKYMED 1 2.5 04:26:06 10° S 04:30:25 66° WSW 04:34:46 10° NNW
SL-16 R/B 3.0 04:29:29 10° NNW 04:35:03 51° NE 04:40:34 10° SE
Lacrosse 5 rocket 1.3 04:35:54 11° SW 04:39:25 70° SE 04:43:15 10° ENE
Meteor 1-31 Rocket 2.9 04:35:44 10° N 04:39:35 53° WNW 04:43:25 10° SSW
Meteor 2-5 Rocket 3.8 04:34:14 10° SSW 04:39:51 61° WNW 04:45:40 10° N
Cosmos 2333 Rocket 4.4 04:36:16 10° NNW 04:40:22 20° NNE 04:44:26 10° E
ADEOS Rocket 4.0 04:37:42 10° SW 04:41:26 18° W 04:45:15 10° NW
CREW DRAGON DEMO-1 DEB 2.8 04:42:58 20° W 04:44:53 71° SSW 04:47:54 10° ESE
Meteor PRIRODA 3.6 04:41:22 10° NNE 04:45:02 88° WNW 04:48:42 10° SSW
Meteor 2-8 Rocket 4.4 04:39:09 10° NNW 04:45:20 81° W 04:51:30 10° S
Cosmos 1553 Rocket 4.1 04:39:53 10° N 04:46:06 83° E 04:52:11 10° S
deb Kosmos-1763 4.1 04:44:49 10° SW 04:48:20 52° WNW 04:51:53 10° NNE
COSMOS 2406 3.5 04:42:59 10° SW 04:48:26 46° NW 04:53:54 10° NNE
Okean 1-7 Rocket 3.7 04:44:06 10° S 04:48:39 89° ESE 04:53:13 10° N
deb Chang Zheng 4 3.9 04:46:25 10° N 04:50:23 40° WNW 04:54:22 10° SW
CZ-4B R/B 4.3 04:46:21 10° N 04:50:26 43° WNW 04:54:21 10° SW
Cosmos 1428 Rocket 4.5 04:44:20 10° SSW 04:50:35 80° W 04:56:49 10° N
Cosmos 2058 Rocket 3.2 04:46:20 10° NNW 04:50:47 57° W 04:55:11 10° S
Cosmos 1697 Rocket 3.6 04:46:55 10° NW 04:51:36 27° WSW 04:56:16 10° SSW
Cosmos 1455 2.7 04:50:54 10° N 04:54:45 63° ENE 04:58:35 10° SSE
ARGOS Delta rocket 4.3 04:54:58 10° N 05:00:08 51° WNW 05:05:25 10° SW
ASTRO F (AKARI) 4.5 04:57:31 10° N 05:01:05 64° WNW 05:04:29 10° SSW
CZ-4B R/B 3.3 05:00:01 10° WSW 05:01:39 13° W 05:03:17 10° WNW
Cosmos 2026 Rocket 4.1 04:55:27 10° SSW 05:01:47 66° WNW 05:08:10 10° N
Cosmos 2360 Rocket 3.4 04:56:56 10° NNW 05:02:16 41° NE 05:07:34 10° ESE
FENGYUN 3A 4.2 04:58:55 10° N 05:03:52 37° WNW 05:08:48 10° SW
Cosmos 1892 Rocket 3.8 05:01:21 10° SSW 05:05:32 46° WNW 05:09:48 10° N
Cosmos 1400 Rocket 3.7 05:03:50 10° NNW 05:07:13 27° W 05:10:34 10° SSW
Cosmos 2084 4.1 05:05:29 10° SSW 05:09:45 62° SE 05:14:08 10° NE
H-2A R/B 3.0 05:05:20 10° NNE 05:09:47 71° ESE 05:14:04 10° S
Cosmos 1980 Rocket 2.9 05:08:37 10° NW 05:13:33 33° WSW 05:18:28 10° SSW
Cosmos 2344 4.3 05:07:23 10° W 05:14:33 43° NNW 05:23:09 10° NE
NOSS 3-2 (C) 4.2 05:09:51 10° W 05:15:34 40° NNW 05:22:11 10° NE
YAOGAN 6 3.2 05:12:00 10° NNE 05:15:41 64° E 05:19:19 10° S
Cosmos 2251 Rocket 3.8 05:14:39 10° SW 05:19:51 50° WNW 05:25:04 10° NNE
Meteor 2-15 4.4 05:13:49 10° NNW 05:19:53 68° W 05:25:53 10° S
